Location: Warszawa
(52.2500°N, 21.0000°E)
Time: 21:19:00
(UTC+02:00)

Vanguard 2 - Pass Details

Date: 03 February 2023
Orbit: 553 x 2927 km, 32.9° (Epoch: 27 March)

Event Time Altitude Azimuth Distance (km) Brightness Sun altitude
Exits shadow 02:25:04 19° 163° (SSE) 4,622 11.2 -43.1°
Drops below altitude 10° 02:29:03 10° 151° (SSE) 5,147 11.6 -42.6°
Sets 02:33:18 0° 141° (SE) 5,865 12.1 -42.1°
